DW1779 Weather Reports


time (UTC)temp
C
wind
direction
speed
KPH
gust
KPH
rain 1hr
cm
rain 24hr
cm
rain mn
cm
humidity
%
barometer
mb
20260904184058 35 51 3.2 8.0 0.00 0.00 0.00 51 1016.4
20260904183558 36 319 1.6 8.0 0.00 0.00 0.00 49 1016.4
20260904183102 35 294 3.2 8.0 0.00 0.00 0.00 48 1016.6
20260904182556 36 318 0.0 12.9 0.00 0.00 0.00 52 1016.5
20260904182056 35 296 4.8 12.9 0.00 0.00 0.00 49 1016.5
20260904181559 34 47 3.2 6.4 0.00 0.00 0.00 56 1016.7
20260904181100 33 337 1.6 4.8 0.00 0.00 0.00 58 1016.6
20260904180656 32 22 3.2 4.8 0.00 0.00 0.00 55 1016.6
20260904180103 33 28 0.0 3.2 0.00 0.00 0.00 59 1016.8
20260904175555 33 9 1.6 3.2 0.00 0.00 0.00 58 1016.9
20260904175055 32 355 0.0 3.2 0.00 0.00 0.00 62 1016.9
20260904174602 32 355 0.0 6.4 0.00 0.00 0.00 61 1017.0
20260904174054 33 9 0.0 6.4 0.00 0.00 0.00 58 1017.1
20260904173554 34 297 3.2 6.4 0.00 0.00 0.00 52 1016.9
20260904173115 33 342 1.6 8.0 0.00 0.00 0.00 56 1017.1
20260904172555 35 317 1.6 8.0 0.00 0.00 0.00 51 1017.2
20260904172055 34 317 1.6 6.4 0.00 0.00 0.00 52 1017.2
20260904171601 32 80 0.0 4.8 0.00 0.00 0.00 63 1017.2
20260904171053 32 195 0.0 4.8 0.00 0.00 0.00 61 1017.4
20260904170654 32 313 0.0 9.7 0.00 0.00 0.00 59 1017.5
20260904170105 33 44 1.6 9.7 0.00 0.00 0.00 52 1017.6
20260904165555 35 43 1.6 11.3 0.00 0.00 0.00 49 1017.5
20260904165056 35 267 3.2 14.5 0.00 0.00 0.00 49 1017.5
20260904164556 35 307 4.8 16.1 0.00 0.00 0.00 48 1017.6
20260904164053 35 304 1.6 11.3 0.00 0.00 0.00 51 1017.7
20260904163552 34 184 1.6 9.7 0.00 0.00 0.00 53 1017.6
20260904163051 33 215 3.2 11.3 0.00 0.00 0.00 55 1017.8
20260904162551 33 232 3.2 11.3 0.00 0.00 0.00 52 1017.7
20260904162051 34 249 3.2 12.9 0.00 0.00 0.00 51 1017.7
20260904161549 34 344 3.2 11.3 0.00 0.00 0.00 53 1017.7
20260904161048 34 168 1.6 6.4 0.00 0.00 0.00 57 1017.7
20260904160649 34 65 1.6 4.8 0.00 0.00 0.00 52 1017.6
20260904160056 33 11 1.6 12.9 0.00 0.00 0.00 58 1017.6
20260904155554 33 264 3.2 12.9 0.00 0.00 0.00 55 1017.6
20260904155054 33 329 3.2 11.3 0.00 0.00 0.00 55 1017.6
20260904154553 33 257 1.6 16.1 0.00 0.00 0.00 57 1017.7
20260904154051 33 301 4.8 16.1 0.00 0.00 0.00 56 1017.7
20260904153550 33 320 3.2 12.9 0.00 0.00 0.00 55 1017.8
20260904153056 33 15 3.2 12.9 0.00 0.00 0.00 56 1017.8
20260904152546 33 291 3.2 11.3 0.00 0.00 0.00 57 1017.8
20260904152045 33 201 1.6 12.9 0.00 0.00 0.00 58 1017.9
20260904151548 33 321 6.4 22.5 0.00 0.00 0.00 57 1017.8
20260904151043 32 298 8.0 22.5 0.00 0.00 0.00 60 1017.8
20260904150642 33 273 9.7 17.7 0.00 0.00 0.00 58 1017.8
20260904150056 32 292 6.4 14.5 0.00 0.00 0.00 60 1017.7
20260904145553 32 355 3.2 14.5 0.00 0.00 0.00 61 1017.6
20260904145052 32 63 3.2 8.0 0.00 0.00 0.00 63 1017.7
20260904144553 32 221 3.2 9.7 0.00 0.00 0.00 63 1017.6
20260904144048 31 217 3.2 9.7 0.00 0.00 0.00 64 1017.7
20260904143551 31 265 1.6 8.0 0.00 0.00 0.00 64 1017.8
20260904143046 31 289 1.6 14.5 0.00 0.00 0.00 66 1017.6
20260904142544 31 291 4.8 14.5 0.00 0.00 0.00 66 1017.6
20260904142043 31 281 3.2 8.0 0.00 0.00 0.00 67 1017.6
20260904141542 30 304 0.0 6.4 0.00 0.00 0.00 69 1017.7
20260904141040 30 250 1.6 17.7 0.00 0.00 0.00 70 1017.6
20260904140502 30 311 6.4 17.7 0.00 0.00 0.00 69 1017.6
20260904140001 29 163 3.2 11.3 0.00 0.00 0.00 72 1017.6
20260904135602 29 309 1.6 11.3 0.00 0.00 0.00 74 1017.6
20260904135058 28 291 3.2 14.5 0.00 0.00 0.00 73 1017.6
20260904134604 28 335 3.2 14.5 0.00 0.00 0.00 77 1017.6
20260904134055 27 303 1.6 4.8 0.00 0.00 0.00 81 1017.7
20260904133554 25 37 0.0 8.0 0.00 0.00 0.00 88 1017.7
20260904133053 23 181 1.6 8.0 0.00 0.00 0.00 94 1017.7
20260904132552 22 112 0.0 4.8 0.00 0.00 0.00 95 1017.8
20260904132051 22 172 0.0 1.6 0.00 0.00 0.00 95 1017.6
20260904131552 22 172 0.0 0.0 0.00 0.00 0.00 95 1017.8
20260904131050 21 172 0.0 0.0 0.00 0.00 0.00 96 1017.7
20260904130650 21 172 0.0 0.0 0.00 0.00 0.00 96 1017.7
20260904130055 21 172 0.0 0.0 0.00 0.00 0.00 96 1017.8
20260904125555 21 172 0.0 0.0 0.00 0.00 0.00 96 1017.8
20260904125056 21 172 0.0 0.0 0.00 0.00 0.00 96 1017.8
20260904124601 20 172 0.0 0.0 0.00 0.00 0.00 96 1017.8
20260904124057 20 172 0.0 0.0 0.00 0.00 0.00 96 1017.8
20260904123551 20 172 0.0 0.0 0.00 0.00 0.00 96 1017.7
20260904123050 20 172 0.0 1.6 0.00 0.00 0.00 96 1017.6
20260904122550 20 172 0.0 1.6 0.00 0.00 0.00 96 1017.6
20260904122049 20 172 0.0 0.0 0.00 0.00 0.00 96 1017.6
20260904121548 20 172 0.0 0.0 0.00 0.00 0.00 96 1017.5
20260904121047 20 172 0.0 0.0 0.00 0.00 0.00 96 1017.6
20260904120647 20 172 0.0 1.6 0.00 0.00 0.00 96 1017.4
20260904120054 20 172 0.0 1.6 0.00 0.00 0.00 96 1017.5
20260904115548 20 172 0.0 1.6 0.00 0.00 0.00 96 1017.4
20260904115047 20 173 0.0 0.0 0.00 0.00 0.00 96 1017.4
20260904114547 20 173 0.0 0.0 0.00 0.00 0.00 96 1017.3
20260904114046 20 173 0.0 0.0 0.00 0.00 0.00 96 1017.3
20260904113545 20 173 0.0 1.6 0.00 0.00 0.00 96 1017.2
20260904113050 20 173 0.0 1.6 0.00 0.00 0.00 96 1017.1
20260904112544 20 173 0.0 1.6 0.00 0.00 0.00 96 1017.0
20260904112049 20 173 0.0 1.6 0.00 0.00 0.00 96 1016.9
20260904111544 20 173 0.0 1.6 0.00 0.00 0.00 96 1016.9
20260904111044 20 173 0.0 0.0 0.00 0.00 0.00 96 1016.9
20260904110645 20 173 0.0 0.0 0.00 0.00 0.00 96 1016.8
20260904110049 20 173 0.0 0.0 0.00 0.00 0.00 96 1017.0
20260904105548 20 173 0.0 1.6 0.00 0.00 0.00 96 1016.8
20260904105048 20 173 0.0 1.6 0.00 0.00 0.00 96 1017.0
20260904104547 20 173 0.0 1.6 0.00 0.00 0.00 96 1017.0
20260904104048 20 173 0.0 1.6 0.00 0.00 0.00 96 1017.0
20260904103546 20 173 0.0 1.6 0.00 0.00 0.00 96 1017.0
20260904103046 20 173 0.0 0.0 0.00 0.00 0.00 95 1016.9
20260904102545 20 173 0.0 0.0 0.00 0.00 0.00 96 1016.7
20260904102042 20 173 0.0 0.0 0.00 0.00 0.00 96 1016.8
20260904101543 20 173 0.0 1.6 0.00 0.00 0.00 96 1016.8
20260904101044 20 173 0.0 1.6 0.00 0.00 0.00 96 1016.8
20260904100515 20 173 0.0 1.6 0.00 0.00 0.00 96 1016.7
20260904100009 20 173 0.0 0.0 0.00 0.00 0.00 96 1016.6
20260904095508 20 173 0.0 0.0 0.00 0.00 0.00 96 1016.7
20260904095009 20 173 0.0 0.0 0.00 0.00 0.00 96 1016.5
20260904094507 20 173 0.0 1.6 0.00 0.00 0.00 96 1016.4
20260904094003 20 173 0.0 1.6 0.00 0.00 0.00 96 1016.4
20260904093503 20 173 0.0 0.0 0.00 0.00 0.00 96 1016.5
20260904093001 20 173 0.0 0.0 0.00 0.00 0.00 96 1016.6
20260904092559 20 173 0.0 0.0 0.00 0.00 0.00 95 1016.5
20260904092058 20 173 0.0 0.0 0.00 0.00 0.00 95 1016.3
20260904091557 20 173 0.0 0.0 0.00 0.00 0.00 95 1016.2
20260904091056 20 173 0.0 0.0 0.00 0.00 0.00 95 1016.3
20260904090657 20 173 0.0 0.0 0.00 0.00 0.00 95 1016.3
20260904090058 20 173 0.0 0.0 0.00 0.00 0.00 95 1016.2
20260904085557 20 173 0.0 0.0 0.00 0.00 0.00 95 1016.1
20260904085056 20 173 0.0 0.0 0.00 0.00 0.00 95 1016.1
20260904084555 20 173 0.0 0.0 0.00 0.00 0.00 95 1016.0
20260904084055 20 173 0.0 0.0 0.00 0.00 0.00 94 1016.0
20260904083558 21 173 0.0 0.0 0.00 0.00 0.00 95 1015.9
20260904083056 21 173 0.0 1.6 0.00 0.00 0.00 94 1015.8
20260904082553 21 173 0.0 1.6 0.00 0.00 0.00 94 1015.8
20260904082052 21 173 0.0 0.0 0.00 0.00 0.00 94 1015.8
20260904081622 21 173 0.0 0.0 0.00 0.00 0.00 94 1015.8
20260904081052 21 173 0.0 0.0 0.00 0.00 0.00 94 1015.7
20260904080654 21 173 0.0 0.0 0.00 0.00 0.00 94 1015.7
20260904080056 21 173 0.0 0.0 0.00 0.00 0.00 93 1015.6
20260904075553 21 173 0.0 0.0 0.00 0.00 0.00 93 1015.7
20260904075053 21 173 0.0 0.0 0.00 0.00 0.00 93 1015.8
20260904074607 21 173 0.0 0.0 0.00 0.00 0.00 93 1015.8
20260904074053 21 173 0.0 0.0 0.00 0.00 0.00 93 1015.6
20260904073553 21 173 0.0 0.0 0.00 0.00 0.00 93 1015.6
20260904073104 21 173 0.0 0.0 0.00 0.00 0.00 93 1015.7
20260904072552 21 173 0.0 0.0 0.00 0.00 0.00 92 1015.7
20260904072050 21 173 0.0 0.0 0.00 0.00 0.00 92 1015.7
20260904071550 21 173 0.0 0.0 0.00 0.00 0.00 92 1015.7
20260904071049 21 173 0.0 0.0 0.00 0.00 0.00 92 1015.8
20260904070649 22 173 0.0 0.0 0.00 0.00 0.00 92 1015.8
20260904070105 22 173 0.0 0.0 0.00 0.00 0.00 91 1015.9
20260904065549 22 173 0.0 0.0 0.00 0.00 0.00 91 1016.0
20260904065047 22 173 0.0 0.0 0.00 0.00 0.00 91 1016.0
20260904064547 22 173 0.0 0.0 0.00 0.00 0.00 91 1016.0
20260904064047 22 173 0.0 0.0 0.00 0.00 0.00 91 1015.9
20260904063547 22 173 0.0 0.0 0.00 0.00 0.00 90 1015.8
20260904063053 22 173 0.0 0.0 0.00 0.00 0.00 90 1015.9
20260904062545 22 173 0.0 0.0 0.00 0.00 0.00 90 1016.0
20260904062045 22 173 0.0 0.0 0.00 0.00 0.00 90 1015.8
20260904061545 22 173 0.0 0.0 0.00 0.00 0.00 89 1015.9
20260904061045 22 173 0.0 0.0 0.00 0.00 0.00 90 1016.0
20260904060645 22 173 0.0 0.0 0.00 0.00 0.00 90 1016.0
20260904060048 22 173 0.0 0.0 0.00 0.00 0.00 90 1015.9
20260904055547 22 173 0.0 0.0 0.00 0.00 0.00 89 1015.9
20260904055050 22 173 0.0 0.0 0.00 0.00 0.00 89 1015.8
20260904054549 22 173 0.0 0.0 0.00 0.00 0.00 88 1015.9
20260904054046 23 173 0.0 0.0 0.00 0.00 0.00 88 1016.0
20260904053544 23 173 0.0 0.0 0.00 0.00 0.00 88 1016.0
20260904053144 23 173 0.0 1.6 0.00 0.00 0.00 87 1016.0
20260904052543 23 173 0.0 1.6 0.00 0.00 0.00 88 1016.0
20260904052044 23 169 0.0 0.0 0.00 0.00 0.00 88 1016.1
20260904051543 23 169 0.0 0.0 0.00 0.00 0.00 88 1016.0
20260904051042 23 169 0.0 0.0 0.00 0.00 0.00 88 1016.0
20260904050642 23 169 0.0 0.0 0.00 0.00 0.00 88 1016.1
20260904050059 23 169 0.0 0.0 0.00 0.00 0.00 88 1016.0
20260904045558 23 169 0.0 0.0 0.00 0.00 0.00 88 1015.9
20260904045058 23 169 0.0 3.2 0.00 0.00 0.00 87 1015.9
20260904044558 23 169 0.0 4.8 0.00 0.00 0.00 87 1015.9
20260904044100 23 182 0.0 4.8 0.00 0.00 0.00 87 1015.9
20260904043557 23 173 0.0 3.2 0.00 0.00 0.00 87 1015.8
20260904043115 23 148 0.0 8.0 0.00 0.00 0.00 87 1015.9
20260904042557 24 173 1.6 8.0 0.00 0.00 0.00 85 1015.9
20260904042100 24 160 0.0 3.2 0.00 0.00 0.00 84 1015.9
20260904041602 24 201 0.0 1.6 0.00 0.00 0.00 84 1015.8
20260904041056 24 201 0.0 1.6 0.00 0.00 0.00 83 1015.8
20260904040657 25 201 0.0 0.0 0.00 0.00 0.00 83 1015.8
20260904040054 25 201 0.0 0.0 0.00 0.00 0.00 81 1015.8
20260904035553 25 201 0.0 1.6 0.00 0.00 0.00 80 1015.8
20260904035052 25 201 0.0 3.2 0.00 0.00 0.00 79 1015.8
20260904034554 25 128 0.0 9.7 0.00 0.00 0.00 80 1015.8
20260904034053 25 177 1.6 9.7 0.00 0.00 0.00 80 1015.7
20260904033553 25 193 1.6 9.7 0.00 0.00 0.00 81 1015.7
20260904033052 25 186 1.6 4.8 0.00 0.00 0.00 82 1015.8
20260904032552 25 177 1.6 6.4 0.00 0.00 0.00 83 1015.8
20260904032052 25 198 1.6 8.0 0.00 0.00 0.00 83 1015.7
20260904031552 25 178 3.2 8.0 0.00 0.00 0.00 84 1015.7
20260904031052 25 196 1.6 6.4 0.00 0.00 0.00 86 1015.5
20260904030652 25 162 1.6 6.4 0.00 0.00 0.00 87 1015.6
20260904030045 24 162 1.6 8.0 0.00 0.00 0.00 88 1015.7
20260904025544 25 166 0.0 4.8 0.00 0.00 0.00 88 1015.6
20260904025044 25 157 0.0 3.2 0.00 0.00 0.00 88 1015.7
20260904024546 25 150 0.0 3.2 0.00 0.00 0.00 88 1015.6
20260904024043 25 153 0.0 0.0 0.00 0.00 0.00 87 1015.7
20260904023543 25 153 0.0 0.0 0.00 0.00 0.00 86 1015.7
20260904023047 25 154 0.0 0.0 0.00 0.00 0.00 86 1015.5
20260904022543 25 153 0.0 0.0 0.00 0.00 0.00 85 1015.5
20260904022044 25 153 0.0 0.0 0.00 0.00 0.00 85 1015.5
20260904021552 25 153 0.0 0.0 0.00 0.00 0.00 84 1015.5
20260904021044 26 153 0.0 0.0 0.00 0.00 0.00 83 1015.5
20260904020643 26 153 0.0 0.0 0.00 0.00 0.00 83 1015.4
20260904020043 26 153 0.0 0.0 0.00 0.00 0.00 82 1015.4
20260904015541 26 153 0.0 1.6 0.00 0.00 0.00 81 1015.2
20260904015041 26 153 0.0 0.0 0.00 0.00 0.00 80 1015.2
20260904014604 26 153 0.0 0.0 0.00 0.00 0.00 80 1015.1
20260904014042 27 154 0.0 1.6 0.00 0.00 0.00 80 1015.1
20260904013545 27 154 0.0 1.6 0.00 0.00 0.00 79 1015.1
20260904013043 27 162 0.0 1.6 0.00 0.00 0.00 78 1015.0
20260904012541 27 87 0.0 3.2 0.00 0.00 0.00 79 1015.0
20260904012040 27 59 0.0 3.2 0.00 0.00 0.00 77 1014.8
20260904011541 27 163 0.0 3.2 0.00 0.00 0.00 77 1014.9
20260904011042 27 152 0.0 3.2 0.00 0.00 0.00 75 1014.6
20260904010640 27 165 0.0 9.7 0.00 0.00 0.00 75 1014.6
20260904010057 27 149 1.6 9.7 0.00 0.00 0.00 76 1014.6
20260904005555 27 123 0.0 3.2 0.00 0.00 0.00 74 1014.5
20260904005056 28 134 0.0 6.4 0.00 0.00 0.00 72 1014.4
20260904004600 28 140 1.6 6.4 0.00 0.00 0.00 72 1014.4
20260904004056 28 119 1.6 4.8 0.00 0.00 0.00 72 1014.3
20260904003555 28 155 0.0 1.6 0.00 0.00 0.00 72 1014.3
20260904003100 28 155 0.0 3.2 0.00 0.00 0.00 71 1014.3
20260904002555 29 155 0.0 3.2 0.00 0.00 0.00 68 1014.2
20260904002058 30 157 0.0 3.2 0.00 0.00 0.00 66 1014.3
20260904001555 30 148 1.6 4.8 0.00 0.00 0.00 65 1014.2
20260904001055 30 157 1.6 4.8 0.00 0.00 0.00 63 1014.2
20260904000656 31 174 1.6 8.0 0.00 0.00 0.00 63 1014.2
20260904000137 31 162 0.0 8.0 0.00 0.00 0.00 60 1014.2
20260903235552 32 130 1.6 8.0 0.00 0.00 0.00 59 1014.1
20260903235052 32 161 3.2 8.0 0.00 0.00 0.00 57 1014.0
20260903234554 32 112 1.6 12.9 0.00 0.00 0.00 58 1014.1
20260903234054 32 98 3.2 12.9 0.00 0.00 0.00 57 1014.2
20260903233551 32 159 0.0 11.3 0.00 0.00 0.00 55 1014.0
20260903233054 33 157 4.8 17.7 0.00 0.00 0.00 55 1014.0
20260903232551 33 278 8.0 17.7 0.00 0.00 0.00 53 1014.0
20260903232055 33 117 3.2 11.3 0.00 0.00 0.00 54 1014.0
20260903231600 33 200 3.2 14.5 0.00 0.00 0.00 55 1014.0
20260903231052 33 180 4.8 17.7 0.00 0.00 0.00 53 1014.0
20260903230652 33 205 8.0 17.7 0.00 0.00 0.00 52 1014.0
20260903225551 33 157 4.8 14.5 0.00 0.00 0.00 52 1014.0
20260903225049 34 242 3.2 16.1 0.00 0.00 0.00 51 1014.0
20260903224554 35 156 6.4 16.1 0.00 0.00 0.00 49 1014.1
20260903224049 35 228 4.8 12.9 0.00 0.00 0.00 49 1014.1
20260903223549 35 239 3.2 14.5 0.00 0.00 0.00 48 1014.1
20260903223148 35 249 6.4 14.5 0.00 0.00 0.00 47 1014.1
20260903222553 34 161 3.2 14.5 0.00 0.00 0.00 50 1014.2
20260903222048 35 82 3.2 14.5 0.00 0.00 0.00 51 1014.0
20260903221551 35 79 3.2 14.5 0.00 0.00 0.00 48 1014.0
20260903221047 35 152 3.2 14.5 0.00 0.00 0.00 45 1014.0
20260903220646 35 182 6.4 14.5 0.00 0.00 0.00 46 1014.0
20260903220056 35 233 6.4 17.7 0.00 0.00 0.00 47 1014.0
20260903215545 35 95 4.8 17.7 0.00 0.00 0.00 47 1014.1
20260903215046 35 206 6.4 17.7 0.00 0.00 0.00 46 1014.0
20260903214551 35 156 6.4 17.7 0.00 0.00 0.00 46 1014.0
20260903214045 35 186 8.0 14.5 0.00 0.00 0.00 46 1014.1
20260903213544 36 157 6.4 14.5 0.00 0.00 0.00 45 1014.2
20260903213048 36 202 3.2 16.1 0.00 0.00 0.00 45 1014.3
20260903212542 35 151 6.4 16.1 0.00 0.00 0.00 45 1014.3
20260903212042 36 92 4.8 24.1 0.00 0.00 0.00 45 1014.3
20260903211544 35 69 6.4 24.1 0.00 0.00 0.00 46 1014.3
20260903211042 35 98 9.7 19.3 0.00 0.00 0.00 48 1014.3
20260903210642 35 159 8.0 17.7 0.00 0.00 0.00 45 1014.4
20260903210049 36 165 8.0 20.9 0.00 0.00 0.00 45 1014.6
20260903205543 36 187 9.7 20.9 0.00 0.00 0.00 44 1014.4
20260903205044 36 130 4.8 17.7 0.00 0.00 0.00 45 1014.3
20260903204545 36 174 6.4 17.7 0.00 0.00 0.00 45 1014.3
20260903204042 36 182 6.4 17.7 0.00 0.00 0.00 44 1014.4
20260903203545 36 152 4.8 17.7 0.00 0.00 0.00 45 1014.4
20260903203044 36 148 6.4 20.9 0.00 0.00 0.00 44 1014.6
20260903202541 36 146 3.2 19.3 0.00 0.00 0.00 45 1014.4
20260903202041 36 187 3.2 12.9 0.00 0.00 0.00 46 1014.5
20260903201540 36 206 4.8 14.5 0.00 0.00 0.00 45 1014.6
20260903201039 36 105 3.2 14.5 0.00 0.00 0.00 45 1014.7
20260903200504 36 207 4.8 16.1 0.00 0.00 0.00 46 1014.8
20260903200002 36 178 8.0 16.1 0.00 0.00 0.00 45 1014.9
20260903195559 37 184 6.4 14.5 0.00 0.00 0.00 43 1014.8
20260903195058 36 144 3.2 19.3 0.00 0.00 0.00 44 1014.9
20260903194558 36 206 8.0 19.3 0.00 0.00 0.00 46 1015.0
20260903194057 35 178 3.2 12.9 0.00 0.00 0.00 45 1015.1
20260903193557 36 174 4.8 12.9 0.00 0.00 0.00 44 1015.2
20260903193058 36 178 8.0 12.9 0.00 0.00 0.00 45 1015.3
20260903192557 36 158 6.4 19.3 0.00 0.00 0.00 43 1015.4
20260903192055 36 213 6.4 19.3 0.00 0.00 0.00 46 1015.3
20260903191557 36 162 6.4 24.1 0.00 0.00 0.00 46 1015.4
20260903191055 36 137 6.4 12.9 0.00 0.00 0.00 47 1015.3
20260903190655 35 23 1.6 12.9 0.00 0.00 0.00 49 1015.5
20260903185555 36 180 3.2 14.5 0.00 0.00 0.00 46 1015.8
20260903185054 36 244 4.8 19.3 0.00 0.00 0.00 44 1015.8
20260903184554 37 180 6.4 19.3 0.00 0.00 0.00 45 1015.7